STARLINK-37166, 69195

Orbit data source: Space-Track

STARLINK-37166, 69195 is a payload satellite owned by SpaceX/Seattle (US) in LEO that was launched on Mon, 25 May 2026 UTC via an FALCON 9 launch vehicle from the Air Force Eastern Test Range (AFETR). Payload-class satellites include a variety of spacecraft equipped with specific instruments for various scientific and technological missions. These include communications satellites like Starlink; space stations such as the ISS; scientific satellites like the Hubble; Earth observation satellites from companies like Planet Labs, Umbra, and HawkEye 360; GPS; miniature CubeSats for education and research; and military/defense satellites.

Not visible in the next 10 days
Identifier
69195, 2026-114P
Orbit
LEO
Country
Flag of USUS
Related business
Manufacturer
SpaceX/Seattle
Mission
Operational spacecraft
Bus & Motor
STARLINK V2MO, Unknown motor
Mass
575 kg wet, ~530 kg dry
Launch date (UTC)
2026-05-25 (4 weeks ago)
Launch vehicle
FALCON 9
Launch site
Air Force Eastern Test Range (AFETR)
Object type
Payload
Rocket body
Debris
Shape & HBR
Unknown
Radar Cross Section
Large (>1 m²)

Expand to show TLE details & history
Last TLE update: 1 day ago

TLE from 1 day ago
0 STARLINK-37166
1 69195U 26114P   26170.65284863 -.00414702  00000-0 -22561-2 0  9990
2 69195  53.1566 189.7759 0001589 202.3035 157.7919 15.80323579  5166
Epoch: 2026-06-19T15:40Z
TLE epoch observation values (Epoch: 2026-06-19T15:40:06.121Z)
Latitude
Longitude
46.87165°
Altitude
331.43 km
Speed
7.71 km/s
True Right ascension
12h 39m 06s
True Declination
0° 00' 00"
Sunlit
Object was in daylight at epoch
Visualization orbit readout
Latitude
Unknown
Longitude
Unknown
Altitude
Unknown
Speed
Unknown
Apparent Right ascension
Unknown
Apparent Declination
Unknown
Sunlit
N/A
Visualization observer readout
Local Sidereal Time
07:18:26
Azimuth
Unknown
Elevation
Unknown
Doppler factor
Unknown
Orbital elements
Apogee altitude
330.853 km
Perigee altitude
328.721 km
Semi-major axis
6,707.924 km
Eccentricity
0.00016
Inclination
53.1566°
RAAN
189.7759°
Arg. of periapsis
202.3035°
True anomaly
157.79878°
Mean anomaly
157.7919°
Eccentric anomaly
157.79534°
Mean motion
3.95058 °/min
Orbital period
91.13 mins
BSTAR
-0.0022561
Loading maneuver chart data...
Computing Atmospheric mass density...
Loading historical data...
Loading historical data...
Loading historical data...
Loading historical data...
Loading historical data...
Loading historical data...
Loading historical data...

Documentation

Showing up to 5 results
|